SND1 ZUDC-VQPR

Flight info

Callsign SND1
Flight time 1h 47m
Altitude 38100
Route MYD Y3 LZP/N0465F380 DCT TASHI TASHI1
Aircraft A319/M-SDE3FGHIRWY/LB1

Departure

Time 2026-05-08 02:06
Airport Daocheng Yading Airport (ZUDC)

Arrival

Time 2026-05-08 03:53
Airport Paro International Airport (VQPR)
Time Latitude Longitude Altitude Speed Heading
2026-05-08 01:43 29.31151 100.06531 14479 ft 0 kts 73°
2026-05-08 01:58 29.31144 100.06507 14479 ft 4 kts 70°
2026-05-08 01:58 29.31134 100.06479 14479 ft 4 kts 59°
2026-05-08 01:58 29.31118 100.06457 14477 ft 4 kts
2026-05-08 01:58 29.31110 100.06457 14479 ft 0 kts 343°
2026-05-08 02:01 29.31114 100.06455 14479 ft 2 kts 343°
2026-05-08 02:01 29.31136 100.06448 14477 ft 5 kts 343°
2026-05-08 02:01 29.31179 100.06433 14478 ft 8 kts 343°
2026-05-08 02:02 29.31241 100.06410 14478 ft 10 kts 326°
2026-05-08 02:02 29.31236 100.06323 14478 ft 13 kts 253°
2026-05-08 02:02 29.31197 100.06222 14479 ft 15 kts 217°
2026-05-08 02:02 29.31084 100.06233 14479 ft 18 kts 163°
2026-05-08 02:03 29.30950 100.06278 14479 ft 22 kts 163°
2026-05-08 02:03 29.30796 100.06329 14479 ft 25 kts 163°
2026-05-08 02:03 29.30624 100.06387 14479 ft 28 kts 163°
2026-05-08 02:03 29.30430 100.06453 14480 ft 31 kts 163°
2026-05-08 02:04 29.30216 100.06524 14480 ft 33 kts 163°
2026-05-08 02:04 29.29993 100.06599 14480 ft 26 kts 163°
2026-05-08 02:04 29.29901 100.06670 14480 ft 11 kts 171°
2026-05-08 02:04 29.29915 100.06629 14480 ft 9 kts 343°
2026-05-08 02:05 29.30122 100.06559 14480 ft 65 kts 343°
2026-05-08 02:05 29.30774 100.06338 14477 ft 127 kts 343°
2026-05-08 02:05 29.31801 100.05992 14479 ft 179 kts 343°
2026-05-08 02:05 29.33128 100.05545 14578 ft 210 kts 339°
2026-05-08 02:06 29.34554 100.05074 14965 ft 220 kts 340°
2026-05-08 02:06 29.36101 100.04572 15192 ft 242 kts 340°
2026-05-08 02:06 29.37796 100.04003 15358 ft 265 kts 336°
2026-05-08 02:06 29.39532 100.03079 15557 ft 287 kts 329°
2026-05-08 02:07 29.41344 100.01981 15759 ft 309 kts 328°
2026-05-08 02:07 29.43302 100.00768 15956 ft 332 kts 328°
2026-05-08 02:07 29.45396 99.99442 16144 ft 353 kts 326°
2026-05-08 02:07 29.47260 99.97556 16401 ft 362 kts 305°
2026-05-08 02:08 29.48385 99.94981 16947 ft 363 kts 283°
2026-05-08 02:08 29.48607 99.92114 17664 ft 364 kts 263°
2026-05-08 02:08 29.47914 99.89333 18364 ft 365 kts 243°
2026-05-08 02:08 29.46411 99.86972 18998 ft 370 kts 229°
2026-05-08 02:09 29.44635 99.84816 19620 ft 372 kts 228°
2026-05-08 02:09 29.42831 99.82683 20234 ft 374 kts 228°
2026-05-08 02:09 29.41033 99.80519 20825 ft 375 kts 232°
2026-05-08 02:09 29.39573 99.78050 21416 ft 374 kts 244°
2026-05-08 02:10 29.38576 99.75297 21963 ft 374 kts 254°
2026-05-08 02:10 29.38057 99.72371 22568 ft 376 kts 264°
2026-05-08 02:10 29.38018 99.69369 23139 ft 377 kts 272°
2026-05-08 02:10 29.38169 99.66364 23684 ft 379 kts 273°
2026-05-08 02:11 29.38364 99.63338 24138 ft 380 kts 274°
2026-05-08 02:11 29.38581 99.60305 24569 ft 383 kts 273°
2026-05-08 02:11 29.38801 99.57258 24992 ft 385 kts 273°
2026-05-08 02:11 29.39016 99.54229 25403 ft 387 kts 273°
2026-05-08 02:12 29.39228 99.51110 25822 ft 389 kts 273°
2026-05-08 02:12 29.39426 99.48050 26092 ft 390 kts 272°
2026-05-08 02:12 29.39624 99.44943 26448 ft 392 kts 272°
2026-05-08 02:12 29.39822 99.41809 26843 ft 394 kts 272°
2026-05-08 02:13 29.40021 99.38669 27262 ft 397 kts 272°
2026-05-08 02:13 29.40218 99.35496 27654 ft 399 kts 272°
2026-05-08 02:13 29.40414 99.32316 28014 ft 401 kts 272°
2026-05-08 02:13 29.40613 99.29119 28364 ft 404 kts 272°
2026-05-08 02:14 29.40816 99.25897 28717 ft 406 kts 272°
2026-05-08 02:14 29.41022 99.22650 29110 ft 408 kts 272°
2026-05-08 02:14 29.41228 99.19397 29467 ft 409 kts 272°
2026-05-08 02:14 29.41433 99.16130 29812 ft 412 kts 272°
2026-05-08 02:15 29.41640 99.12844 30149 ft 414 kts 272°
2026-05-08 02:15 29.41845 99.09542 30492 ft 416 kts 272°
2026-05-08 02:15 29.42044 99.06279 30860 ft 415 kts 271°
2026-05-08 02:15 29.42241 99.02978 31266 ft 413 kts 272°
2026-05-08 02:16 29.42438 98.99703 31810 ft 408 kts 271°
2026-05-08 02:16 29.42634 98.96482 32414 ft 402 kts 271°
2026-05-08 02:16 29.42831 98.93306 32957 ft 396 kts 271°
2026-05-08 02:16 29.43025 98.90175 33563 ft 391 kts 271°
2026-05-08 02:17 29.43211 98.87097 34155 ft 384 kts 271°
2026-05-08 02:17 29.43392 98.84048 34591 ft 380 kts 270°
2026-05-08 02:17 29.43568 98.81031 34955 ft 378 kts 270°
2026-05-08 02:17 29.43743 98.78020 35284 ft 378 kts 271°
2026-05-08 02:18 29.43918 98.75012 35592 ft 378 kts 270°
2026-05-08 02:18 29.44092 98.72011 35935 ft 377 kts 270°
2026-05-08 02:18 29.44264 98.69012 36266 ft 376 kts 270°
2026-05-08 02:18 29.44434 98.66015 36571 ft 376 kts 270°
2026-05-08 02:19 29.44603 98.63036 36889 ft 375 kts 270°
2026-05-08 02:19 29.44771 98.60087 37123 ft 374 kts 270°
2026-05-08 02:19 29.44944 98.57106 37379 ft 374 kts 270°
2026-05-08 02:19 29.45116 98.54138 37677 ft 373 kts 270°
2026-05-08 02:20 29.45286 98.51169 37970 ft 372 kts 270°
2026-05-08 02:20 29.45455 98.48206 38177 ft 373 kts 270°
2026-05-08 02:20 29.45791 98.42277 38229 ft 371 kts 270°
2026-05-08 02:21 29.46122 98.36355 38233 ft 373 kts 269°
2026-05-08 02:21 29.46456 98.30414 38230 ft 372 kts 269°
2026-05-08 02:22 29.46790 98.24485 38230 ft 373 kts 270°
2026-05-08 02:22 29.47110 98.18504 38254 ft 376 kts 270°
2026-05-08 02:23 29.47431 98.12526 38247 ft 373 kts 270°
2026-05-08 02:23 29.47757 98.06609 38254 ft 375 kts 269°
2026-05-08 02:24 29.48072 98.00651 38266 ft 374 kts 269°
2026-05-08 02:24 29.48383 97.94690 38267 ft 374 kts 269°
2026-05-08 02:25 29.48696 97.88726 38264 ft 373 kts 269°
2026-05-08 02:25 29.49007 97.82805 38265 ft 372 kts 270°
2026-05-08 02:26 29.49311 97.76890 38266 ft 371 kts 269°
2026-05-08 02:26 29.49612 97.70959 38276 ft 373 kts 269°
2026-05-08 02:27 29.49910 97.65014 38273 ft 373 kts 269°
2026-05-08 02:27 29.50207 97.59067 38282 ft 373 kts 269°
2026-05-08 02:28 29.50502 97.53194 38237 ft 367 kts 270°
2026-05-08 02:28 29.50797 97.47337 38269 ft 370 kts 269°
2026-05-08 02:29 29.51088 97.41419 38289 ft 372 kts 269°
2026-05-08 02:29 29.51378 97.35475 38312 ft 373 kts 269°
2026-05-08 02:30 29.51664 97.29535 38322 ft 372 kts 269°
2026-05-08 02:30 29.51942 97.23658 38347 ft 370 kts 269°
2026-05-08 02:31 29.52213 97.17729 38342 ft 373 kts 269°
2026-05-08 02:31 29.52489 97.11789 38355 ft 373 kts 269°
2026-05-08 02:32 29.52761 97.05828 38372 ft 375 kts 269°
2026-05-08 02:32 29.53034 96.99892 38366 ft 371 kts 268°
2026-05-08 02:33 29.53307 96.93955 38371 ft 374 kts 269°
2026-05-08 02:33 29.53577 96.88021 38377 ft 371 kts 269°
2026-05-08 02:34 29.53832 96.82118 38383 ft 374 kts 269°
2026-05-08 02:34 29.54100 96.76092 38387 ft 375 kts 268°
2026-05-08 02:35 29.54360 96.70149 38390 ft 376 kts 269°
2026-05-08 02:35 29.54616 96.64161 38381 ft 374 kts 269°
2026-05-08 02:36 29.54873 96.58197 38399 ft 374 kts 269°
2026-05-08 02:36 29.55126 96.52220 38384 ft 373 kts 268°
2026-05-08 02:37 29.55331 96.47266 38391 ft 374 kts 268°
2026-05-08 02:37 29.55576 96.41296 38392 ft 374 kts 268°
2026-05-08 02:38 29.55813 96.35326 38388 ft 374 kts 268°
2026-05-08 02:38 29.56055 96.29345 38372 ft 373 kts 269°
2026-05-08 02:39 29.56306 96.23386 38383 ft 374 kts 268°
2026-05-08 02:39 29.56544 96.17479 38351 ft 371 kts 269°
2026-05-08 02:40 29.56771 96.11565 38363 ft 372 kts 268°
2026-05-08 02:40 29.56991 96.05617 38358 ft 373 kts 268°
2026-05-08 02:41 29.57216 95.99652 38316 ft 370 kts 269°
2026-05-08 02:41 29.57444 95.93812 38347 ft 371 kts 268°
2026-05-08 02:42 29.57669 95.87883 38348 ft 371 kts 268°
2026-05-08 02:42 29.57891 95.81950 38324 ft 371 kts 268°
2026-05-08 02:43 29.58105 95.76037 38330 ft 372 kts 268°
2026-05-08 02:43 29.58317 95.70089 38313 ft 373 kts 268°
2026-05-08 02:44 29.58525 95.64126 38308 ft 373 kts 268°
2026-05-08 02:44 29.58637 95.58173 38310 ft 371 kts 261°
2026-05-08 02:45 29.57884 95.52332 38315 ft 369 kts 259°
2026-05-08 02:45 29.57101 95.46527 38313 ft 370 kts 258°
2026-05-08 02:46 29.56309 95.40687 38290 ft 370 kts 259°
2026-05-08 02:46 29.55518 95.34850 38277 ft 369 kts 258°
2026-05-08 02:47 29.54725 95.29013 38305 ft 371 kts 259°
2026-05-08 02:47 29.53926 95.23157 38308 ft 371 kts 259°
2026-05-08 02:48 29.53130 95.17310 38314 ft 371 kts 259°
2026-05-08 02:48 29.52329 95.11443 38306 ft 375 kts 258°
2026-05-08 02:49 29.51522 95.05556 38315 ft 371 kts 259°
2026-05-08 02:49 29.50711 94.99706 38320 ft 371 kts 259°
2026-05-08 02:50 29.49903 94.93872 38328 ft 370 kts 258°
2026-05-08 02:50 29.49091 94.88035 38335 ft 371 kts 258°
2026-05-08 02:51 29.48263 94.82153 38339 ft 374 kts 258°
2026-05-08 02:51 29.47443 94.76300 38348 ft 373 kts 258°
2026-05-08 02:52 29.46622 94.70433 38359 ft 373 kts 258°
2026-05-08 02:52 29.45797 94.64561 38362 ft 372 kts 258°
2026-05-08 02:53 29.44966 94.58695 38357 ft 373 kts 259°
2026-05-08 02:53 29.44131 94.52827 38346 ft 372 kts 258°
2026-05-08 02:54 29.43277 94.46974 38348 ft 371 kts 255°
2026-05-08 02:54 29.41336 94.41524 38343 ft 370 kts 244°
2026-05-08 02:55 29.37866 94.33587 38336 ft 372 kts 245°
2026-05-08 02:56 29.35553 94.28276 38362 ft 374 kts 245°
2026-05-08 02:56 29.33230 94.22960 38342 ft 372 kts 244°
2026-05-08 02:57 29.30915 94.17665 38351 ft 372 kts 244°
2026-05-08 02:57 29.28592 94.12373 38349 ft 371 kts 245°
2026-05-08 02:58 29.26270 94.07093 38352 ft 372 kts 244°
2026-05-08 02:58 29.23955 94.01801 38357 ft 371 kts 244°
2026-05-08 02:59 29.21656 93.96559 38359 ft 371 kts 244°
2026-05-08 02:59 29.19330 93.91290 38354 ft 371 kts 244°
2026-05-08 03:00 29.16996 93.86026 38338 ft 371 kts 244°
2026-05-08 03:00 29.14665 93.80746 38335 ft 372 kts 243°
2026-05-08 03:01 29.12336 93.75470 38335 ft 370 kts 244°
2026-05-08 03:01 29.10003 93.70206 38319 ft 372 kts 242°
2026-05-08 03:02 29.07663 93.64931 38321 ft 371 kts 244°
2026-05-08 03:02 29.05321 93.59664 38320 ft 373 kts 244°
2026-05-08 03:03 29.02959 93.54356 38313 ft 374 kts 243°
2026-05-08 03:03 29.00627 93.49110 38288 ft 368 kts 244°
2026-05-08 03:04 28.98316 93.43925 38286 ft 369 kts 244°
2026-05-08 03:04 28.95985 93.38695 38284 ft 370 kts 244°
2026-05-08 03:05 28.93644 93.33460 38264 ft 370 kts 243°
2026-05-08 03:05 28.91284 93.28213 38251 ft 370 kts 244°
2026-05-08 03:06 28.88940 93.22985 38272 ft 371 kts 244°
2026-05-08 03:06 28.86599 93.17759 38272 ft 372 kts 244°
2026-05-08 03:07 28.84237 93.12496 38287 ft 373 kts 244°
2026-05-08 03:07 28.81878 93.07246 38273 ft 371 kts 243°
2026-05-08 03:08 28.79521 93.02025 38295 ft 368 kts 243°
2026-05-08 03:08 28.77197 92.96874 38279 ft 368 kts 243°
2026-05-08 03:09 28.74826 92.91632 38283 ft 370 kts 244°
2026-05-08 03:09 28.72489 92.86466 38293 ft 369 kts 243°
2026-05-08 03:10 28.70125 92.81249 38282 ft 370 kts 244°
2026-05-08 03:10 28.67761 92.76041 38281 ft 369 kts 243°
2026-05-08 03:11 28.65414 92.70873 38278 ft 368 kts 243°
2026-05-08 03:11 28.63062 92.65686 38271 ft 368 kts 243°
2026-05-08 03:12 28.60695 92.60488 38274 ft 371 kts 243°
2026-05-08 03:12 28.58325 92.55290 38262 ft 370 kts 243°
2026-05-08 03:13 28.55952 92.50091 38270 ft 370 kts 243°
2026-05-08 03:13 28.53574 92.44896 38263 ft 370 kts 243°
2026-05-08 03:14 28.51197 92.39709 38271 ft 370 kts 243°
2026-05-08 03:14 28.48814 92.34512 38259 ft 369 kts 243°
2026-05-08 03:15 28.46454 92.29355 38271 ft 370 kts 243°
2026-05-08 03:15 28.44070 92.24165 38268 ft 370 kts 243°
2026-05-08 03:16 28.41689 92.18975 38273 ft 370 kts 243°
2026-05-08 03:16 28.39322 92.13776 38274 ft 370 kts 243°
2026-05-08 03:17 28.36960 92.08584 38266 ft 370 kts 244°
2026-05-08 03:17 28.34596 92.03408 38272 ft 369 kts 244°
2026-05-08 03:18 28.32226 91.98210 38283 ft 371 kts 243°
2026-05-08 03:18 28.29848 91.93017 38288 ft 371 kts 243°
2026-05-08 03:19 28.27471 91.87828 38259 ft 369 kts 244°
2026-05-08 03:19 28.25089 91.82640 38296 ft 372 kts 243°
2026-05-08 03:20 28.23102 91.78323 38303 ft 372 kts 243°
2026-05-08 03:20 28.20720 91.73150 38309 ft 370 kts 243°
2026-05-08 03:21 28.18335 91.67973 38308 ft 371 kts 243°
2026-05-08 03:21 28.15948 91.62809 38299 ft 370 kts 243°
2026-05-08 03:22 28.13564 91.57641 38303 ft 371 kts 243°
2026-05-08 03:22 28.11178 91.52467 38302 ft 371 kts 243°
2026-05-08 03:23 28.08786 91.47302 38297 ft 371 kts 243°
2026-05-08 03:23 28.06384 91.42123 38312 ft 372 kts 242°
2026-05-08 03:24 28.03985 91.36952 38298 ft 372 kts 243°
2026-05-08 03:24 28.01577 91.31765 38311 ft 372 kts 243°
2026-05-08 03:25 27.99166 91.26586 38305 ft 372 kts 243°
2026-05-08 03:25 27.96754 91.21406 38313 ft 373 kts 243°
2026-05-08 03:26 27.94332 91.16215 38308 ft 373 kts 243°
2026-05-08 03:26 27.91913 91.11034 38302 ft 374 kts 242°
2026-05-08 03:27 27.89481 91.05834 38295 ft 373 kts 244°
2026-05-08 03:27 27.87053 91.00653 38299 ft 372 kts 243°
2026-05-08 03:28 27.84628 90.95485 38293 ft 372 kts 244°
2026-05-08 03:28 27.82196 90.90300 38295 ft 373 kts 243°
2026-05-08 03:29 27.79770 90.85121 38297 ft 374 kts 243°
2026-05-08 03:29 27.77332 90.79936 38292 ft 373 kts 242°
2026-05-08 03:30 27.73674 90.72173 38300 ft 373 kts 243°
2026-05-08 03:31 27.68796 90.61847 38304 ft 374 kts 243°
2026-05-08 03:32 27.65131 90.54096 38311 ft 373 kts 243°
2026-05-08 03:32 27.62686 90.48946 38290 ft 372 kts 243°
2026-05-08 03:33 27.60250 90.43818 38295 ft 372 kts 243°
2026-05-08 03:33 27.57807 90.38674 38285 ft 372 kts 243°
2026-05-08 03:34 27.55373 90.33548 38282 ft 371 kts 243°
2026-05-08 03:34 27.54154 90.30983 38170 ft 373 kts 243°
2026-05-08 03:34 27.52927 90.28409 37901 ft 372 kts 243°
2026-05-08 03:34 27.51701 90.25843 37639 ft 373 kts 243°
2026-05-08 03:35 27.50467 90.23261 37381 ft 375 kts 243°
2026-05-08 03:35 27.49229 90.20670 37024 ft 376 kts 243°
2026-05-08 03:35 27.47987 90.18069 36330 ft 377 kts 243°
2026-05-08 03:35 27.46745 90.15468 35612 ft 378 kts 242°
2026-05-08 03:36 27.45496 90.12849 34841 ft 381 kts 242°
2026-05-08 03:36 27.44252 90.10244 34113 ft 383 kts 242°
2026-05-08 03:36 27.42980 90.07586 33150 ft 387 kts 242°
2026-05-08 03:36 27.41760 90.04867 32166 ft 392 kts 247°
2026-05-08 03:37 27.40845 90.01946 31162 ft 399 kts 251°
2026-05-08 03:37 27.39964 89.98960 30228 ft 405 kts 251°
2026-05-08 03:37 27.39081 89.95957 29634 ft 399 kts 251°
2026-05-08 03:37 27.38229 89.93057 29515 ft 384 kts 251°
2026-05-08 03:38 27.37478 89.90219 29370 ft 371 kts 257°
2026-05-08 03:38 27.37224 89.87377 29233 ft 360 kts 268°
2026-05-08 03:38 27.37357 89.84899 29121 ft 352 kts 271°
2026-05-08 03:38 27.37535 89.82191 28984 ft 341 kts 271°
2026-05-08 03:39 27.37703 89.79557 28747 ft 333 kts 271°
2026-05-08 03:39 27.37862 89.77002 28333 ft 332 kts 271°
2026-05-08 03:39 27.38017 89.74426 27843 ft 331 kts 271°
2026-05-08 03:39 27.38168 89.71845 27348 ft 328 kts 271°
2026-05-08 03:40 27.38319 89.69302 26822 ft 324 kts 271°
2026-05-08 03:40 27.38472 89.66776 26308 ft 323 kts 271°
2026-05-08 03:40 27.38627 89.64262 25813 ft 321 kts 271°
2026-05-08 03:40 27.38784 89.61760 25318 ft 320 kts 272°
2026-05-08 03:41 27.38938 89.59270 24805 ft 318 kts 272°
2026-05-08 03:41 27.39088 89.56790 24320 ft 317 kts 272°
2026-05-08 03:41 27.39236 89.54323 23869 ft 315 kts 272°
2026-05-08 03:41 27.39382 89.51885 23368 ft 311 kts 272°
2026-05-08 03:42 27.39526 89.49472 22921 ft 307 kts 272°
2026-05-08 03:42 27.39668 89.47110 22722 ft 295 kts 272°
2026-05-08 03:42 27.39805 89.44860 22564 ft 283 kts 272°
2026-05-08 03:42 27.39939 89.42671 22244 ft 278 kts 272°
2026-05-08 03:43 27.39973 89.40515 21800 ft 274 kts 263°
2026-05-08 03:43 27.39630 89.38414 21388 ft 272 kts 253°
2026-05-08 03:43 27.38946 89.36441 20949 ft 271 kts 243°
2026-05-08 03:43 27.37943 89.34645 20505 ft 271 kts 233°
2026-05-08 03:44 27.36653 89.33100 20131 ft 271 kts 222°
2026-05-08 03:44 27.35133 89.31873 19904 ft 265 kts 212°
2026-05-08 03:44 27.33492 89.31024 19784 ft 255 kts 202°
2026-05-08 03:44 27.31816 89.30542 19564 ft 245 kts 193°
2026-05-08 03:45 27.30114 89.30470 19158 ft 246 kts 178°
2026-05-08 03:45 27.28438 89.30896 18765 ft 249 kts 163°
2026-05-08 03:45 27.26906 89.31807 18357 ft 251 kts 148°
2026-05-08 03:45 27.25623 89.33148 17925 ft 253 kts 132°
2026-05-08 03:46 27.24691 89.34825 17472 ft 254 kts 116°
2026-05-08 03:46 27.24136 89.36702 17022 ft 253 kts 108°
2026-05-08 03:46 27.23633 89.38593 16618 ft 251 kts 108°
2026-05-08 03:46 27.23131 89.40454 16155 ft 249 kts 108°
2026-05-08 03:47 27.22622 89.42338 15519 ft 253 kts 108°
2026-05-08 03:47 27.22172 89.44208 15073 ft 250 kts 100°
2026-05-08 03:47 27.22122 89.46162 14677 ft 246 kts 84°
2026-05-08 03:47 27.22466 89.48012 14267 ft 238 kts 71°
2026-05-08 03:48 27.23146 89.49650 13731 ft 231 kts 58°
2026-05-08 03:48 27.24106 89.51065 13201 ft 225 kts 46°
2026-05-08 03:48 27.25269 89.52219 12672 ft 219 kts 35°
2026-05-08 03:48 27.26523 89.53044 12452 ft 195 kts 26°
2026-05-08 03:49 27.27679 89.53710 12106 ft 181 kts 27°
2026-05-08 03:49 27.28808 89.54244 11778 ft 173 kts 14°
2026-05-08 03:49 27.29977 89.54332 11465 ft 164 kts 354°
2026-05-08 03:49 27.31045 89.53997 11139 ft 158 kts 334°
2026-05-08 03:50 27.31943 89.53315 10773 ft 156 kts 316°
2026-05-08 03:50 27.32603 89.52359 10413 ft 155 kts 298°
2026-05-08 03:50 27.32969 89.51228 10029 ft 154 kts 281°
2026-05-08 03:50 27.33009 89.50031 9637 ft 153 kts 263°
2026-05-08 03:51 27.32947 89.48839 9220 ft 153 kts 273°
2026-05-08 03:51 27.33152 89.47674 8835 ft 151 kts 288°
2026-05-08 03:51 27.33623 89.46625 8672 ft 153 kts 309°
2026-05-08 03:51 27.34552 89.46103 8465 ft 154 kts 356°
2026-05-08 03:52 27.35608 89.46120 8389 ft 152 kts
2026-05-08 03:52 27.36635 89.45872 8289 ft 153 kts 334°
2026-05-08 03:52 27.37475 89.45158 8186 ft 152 kts 310°
2026-05-08 03:52 27.38070 89.44158 7787 ft 154 kts 306°
2026-05-08 03:53 27.38868 89.43408 7471 ft 148 kts 329°
2026-05-08 03:53 27.39761 89.42835 7323 ft 144 kts 330°
2026-05-08 03:53 27.40454 89.42393 7337 ft 74 kts 330°
2026-05-08 03:53 27.40668 89.42256 7347 ft 11 kts 325°
2026-05-08 03:54 27.40680 89.42242 7348 ft 0 kts 307°
2026-05-08 03:54 27.40682 89.42235 7348 ft 2 kts 296°
2026-05-08 03:54 27.40684 89.42211 7349 ft 5 kts 264°
2026-05-08 03:54 27.40662 89.42159 7348 ft 6 kts 240°
2026-05-08 03:55 27.40643 89.42123 7348 ft 4 kts 238°
2026-05-08 03:55 27.40635 89.42108 7349 ft 0 kts 238°